• în România
  • Lista ţărilor
  • Pe 7 zile
  • Temperatura apei
  • Hartă satelitară
  • Meteo pe hartă
  • Widget-uri
  • user-avatar
    Intrare

    Meteo pe oră la Hersonissos

    Astăzi, 23 Septembrie, Duminică

    Timp Temperatura Precipitaţii Vânt Presiune Umiditate
    00:00 +23°C° 0 mm 4 m/s 746 mmHg 60%
    01:00 +23°C° 0 mm 4 m/s 746 mmHg 60%
    02:00 +23°C° 0 mm 4 m/s 746 mmHg 59%
    03:00 +23°C° 0 mm 4 m/s 746 mmHg 61%
    04:00 +22°C° 0 mm 4 m/s 746 mmHg 63%
    05:00 +22°C° 0 mm 3 m/s 746 mmHg 64%
    06:00 +24°C° 0 mm 3 m/s 746 mmHg 62%
    07:00 +25°C° 0 mm 3 m/s 746 mmHg 60%
    08:00 +26°C° 0 mm 3 m/s 746 mmHg 58%
    09:00 +27°C° 0 mm 2 m/s 746 mmHg 53%
    10:00 +28°C° 0 mm 2 m/s 747 mmHg 49%
    11:00 +29°C° 0 mm 2 m/s 747 mmHg 45%
    12:00 +30°C° 0 mm 2 m/s 747 mmHg 44%
    13:00 +30°C° 0 mm 3 m/s 747 mmHg 43%
    14:00 +31°C° 0 mm 3 m/s 747 mmHg 42%
    15:00 +30°C° 0 mm 3 m/s 747 mmHg 44%
    16:00 +30°C° 0 mm 3 m/s 746 mmHg 47%
    17:00 +29°C° 0 mm 3 m/s 746 mmHg 49%
    18:00 +28°C° 0 mm 3 m/s 746 mmHg 53%
    19:00 +27°C° 0 mm 3 m/s 746 mmHg 57%
    20:00 +26°C° 0 mm 3 m/s 746 mmHg 60%
    21:00 +26°C° 0 mm 3 m/s 746 mmHg 60%
    22:00 +25°C° 0 mm 3 m/s 746 mmHg 59%
    23:00 +25°C° 0 mm 3 m/s 746 mmHg 59%

    Mâine, 24 Septembrie, Luni

    Timp Temperatura Precipitaţii Vânt Presiune Umiditate
    00:00 +25°C° 0 mm 3 m/s 746 mmHg 56%
    01:00 +25°C° 0 mm 3 m/s 746 mmHg 53%
    02:00 +24°C° 0 mm 3 m/s 746 mmHg 50%
    03:00 +24°C° 0 mm 3 m/s 745 mmHg 51%
    04:00 +24°C° 0 mm 3 m/s 745 mmHg 52%
    05:00 +24°C° 0 mm 3 m/s 745 mmHg 53%
    06:00 +25°C° 0 mm 3 m/s 745 mmHg 52%
    07:00 +25°C° 0 mm 3 m/s 745 mmHg 50%
    08:00 +26°C° 0 mm 3 m/s 745 mmHg 49%
    09:00 +28°C° 0 mm 3 m/s 745 mmHg 44%
    10:00 +29°C° 0 mm 2 m/s 745 mmHg 40%
    11:00 +30°C° 0 mm 2 m/s 745 mmHg 36%
    12:00 +30°C° 0 mm 3 m/s 745 mmHg 36%
    13:00 +30°C° 0 mm 3 m/s 745 mmHg 36%
    14:00 +32°C° 0 mm 4 m/s 745 mmHg 35%
    15:00 +30°C° 0 mm 4 m/s 744 mmHg 38%
    16:00 +30°C° 0 mm 3 m/s 744 mmHg 42%
    17:00 +29°C° 0 mm 3 m/s 744 mmHg 45%
    18:00 +28°C° 0 mm 3 m/s 744 mmHg 51%
    19:00 +27°C° 0 mm 2 m/s 744 mmHg 58%
    20:00 +26°C° 0 mm 2 m/s 744 mmHg 65%
    21:00 +26°C° 0 mm 2 m/s 744 mmHg 66%
    22:00 +25°C° 0 mm 2 m/s 744 mmHg 67%
    23:00 +25°C° 0 mm 2 m/s 745 mmHg 67%

    Poimâine, 25 Septembrie, Marţi

    Timp Temperatura Precipitaţii Vânt Presiune Umiditate
    00:00 +25°C° 0 mm 2 m/s 744 mmHg 68%
    01:00 +24°C° 0 mm 2 m/s 744 mmHg 69%
    02:00 +24°C° 0 mm 2 m/s 744 mmHg 70%
    03:00 +24°C° 0 mm 2 m/s 744 mmHg 71%
    04:00 +24°C° 0 mm 2 m/s 743 mmHg 72%
    05:00 +23°C° 0 mm 2 m/s 743 mmHg 73%
    06:00 +24°C° 0 mm 2 m/s 744 mmHg 69%
    07:00 +25°C° 0 mm 2 m/s 744 mmHg 64%
    08:00 +26°C° 0 mm 3 m/s 744 mmHg 60%
    09:00 +27°C° 0 mm 3 m/s 744 mmHg 57%
    10:00 +28°C° 0 mm 3 m/s 745 mmHg 54%
    11:00 +29°C° 0 mm 3 m/s 745 mmHg 51%
    12:00 +30°C° 0 mm 4 m/s 745 mmHg 51%
    13:00 +30°C° 0 mm 5 m/s 745 mmHg 50%
    14:00 +32°C° 0 mm 6 m/s 744 mmHg 49%
    15:00 +29°C° 0 mm 6 m/s 744 mmHg 52%
    16:00 +28°C° 0 mm 7 m/s 744 mmHg 55%
    17:00 +27°C° 0 mm 7 m/s 744 mmHg 57%
    18:00 +26°C° 0 mm 8 m/s 744 mmHg 61%
    19:00 +24°C° 0 mm 8 m/s 745 mmHg 64%
    20:00 +23°C° 0 mm 9 m/s 745 mmHg 67%
    21:00 +23°C° 0 mm 9 m/s 745 mmHg 66%
    22:00 +23°C° 0 mm 9 m/s 745 mmHg 66%
    23:00 +23°C° 0 mm 10 m/s 746 mmHg 66%

    26 Septembrie, Miercuri

    Timp Temperatura Precipitaţii Vânt Presiune Umiditate
    00:00 +22°C° 0 mm 10 m/s 746 mmHg 66%
    01:00 +22°C° 0 mm 10 m/s 745 mmHg 66%
    02:00 +22°C° 0 mm 11 m/s 745 mmHg 66%
    03:00 +22°C° 0 mm 11 m/s 745 mmHg 66%
    04:00 +21°C° 0 mm 12 m/s 745 mmHg 65%
    05:00 +21°C° 0 mm 12 m/s 745 mmHg 65%
    06:00 +21°C° 0 mm 12 m/s 745 mmHg 61%
    07:00 +22°C° 0 mm 13 m/s 746 mmHg 56%
    08:00 +22°C° 0 mm 13 m/s 746 mmHg 52%
    09:00 +23°C° 0 mm 13 m/s 746 mmHg 49%
    10:00 +23°C° 0 mm 14 m/s 747 mmHg 45%
    11:00 +24°C° 0 mm 14 m/s 747 mmHg 42%
    12:00 +24°C° 0 mm 14 m/s 747 mmHg 43%
    13:00 +23°C° 0 mm 14 m/s 747 mmHg 43%
    14:00 +23°C° 0 mm 14 m/s 746 mmHg 43%
    15:00 +22°C° 0 mm 14 m/s 746 mmHg 46%
    16:00 +20°C° 0 mm 14 m/s 746 mmHg 49%
    17:00 +20°C° 0 mm 15 m/s 746 mmHg 52%
    18:00 +19°C° 0.1 mm 15 m/s 746 mmHg 53%
    19:00 +18°C° 0.1 mm 15 m/s 747 mmHg 55%
    20:00 +18°C° 0.1 mm 16 m/s 747 mmHg 56%
    21:00 +18°C° 0.1 mm 16 m/s 747 mmHg 56%
    22:00 +16°C° 0.1 mm 16 m/s 747 mmHg 56%
    23:00 +16°C° 0.1 mm 16 m/s 747 mmHg 56%

    27 Septembrie, Joi

    Timp Temperatura Precipitaţii Vânt Presiune Umiditate
    00:00 +16°C° 0.1 mm 16 m/s 747 mmHg 56%
    01:00 +16°C° 0.1 mm 16 m/s 747 mmHg 57%
    02:00 +16°C° 0.1 mm 16 m/s 746 mmHg 57%
    03:00 +15°C° 0.3 mm 16 m/s 746 mmHg 58%
    04:00 +15°C° 0.3 mm 16 m/s 746 mmHg 59%
    05:00 +15°C° 0.3 mm 16 m/s 745 mmHg 60%
    06:00 +15°C° 0.6 mm 16 m/s 745 mmHg 59%
    07:00 +16°C° 0.6 mm 17 m/s 745 mmHg 58%
    08:00 +16°C° 0.6 mm 17 m/s 745 mmHg 57%
    09:00 +16°C° 0.8 mm 17 m/s 745 mmHg 56%
    10:00 +18°C° 0.8 mm 17 m/s 745 mmHg 55%
    11:00 +18°C° 0.8 mm 17 m/s 745 mmHg 54%
    12:00 +18°C° 1.3 mm 17 m/s 744 mmHg 55%
    13:00 +18°C° 1.3 mm 17 m/s 744 mmHg 57%
    14:00 +16°C° 1.3 mm 17 m/s 743 mmHg 58%
    15:00 +16°C° 1.8 mm 17 m/s 743 mmHg 60%
    16:00 +16°C° 1.8 mm 16 m/s 743 mmHg 62%
    17:00 +16°C° 1.8 mm 16 m/s 743 mmHg 63%
    18:00 +16°C° 1.7 mm 16 m/s 743 mmHg 65%
    19:00 +17°C° 1.7 mm 15 m/s 743 mmHg 68%
    20:00 +17°C° 1.7 mm 15 m/s 743 mmHg 70%
    21:00 +17°C° 1.7 mm 14 m/s 742 mmHg 70%
    22:00 +17°C° 1.7 mm 14 m/s 742 mmHg 70%
    23:00 +17°C° 1.7 mm 13 m/s 742 mmHg 70%

    28 Septembrie, Vineri

    Timp Temperatura Precipitaţii Vânt Presiune Umiditate
    00:00 +17°C° 1 mm 13 m/s 742 mmHg 70%
    01:00 +17°C° 1 mm 12 m/s 742 mmHg 71%
    02:00 +18°C° 1 mm 12 m/s 741 mmHg 71%
    03:00 +18°C° 0.8 mm 11 m/s 741 mmHg 71%
    04:00 +18°C° 0.8 mm 10 m/s 741 mmHg 71%
    05:00 +18°C° 0.8 mm 10 m/s 741 mmHg 72%
    06:00 +18°C° 1 mm 10 m/s 741 mmHg 71%
    07:00 +18°C° 1 mm 10 m/s 742 mmHg 71%
    08:00 +18°C° 1 mm 10 m/s 742 mmHg 70%
    09:00 +18°C° 0.8 mm 10 m/s 742 mmHg 71%
    10:00 +18°C° 0.8 mm 10 m/s 742 mmHg 71%
    11:00 +18°C° 0.8 mm 11 m/s 743 mmHg 72%
    12:00 +18°C° 0.9 mm 11 m/s 743 mmHg 69%
    13:00 +19°C° 0.9 mm 11 m/s 743 mmHg 67%
    14:00 +19°C° 0.9 mm 11 m/s 743 mmHg 65%
    15:00 +19°C° 0.9 mm 11 m/s 743 mmHg 65%
    16:00 +19°C° 0.9 mm 11 m/s 743 mmHg 64%
    17:00 +19°C° 0.9 mm 10 m/s 743 mmHg 64%
    18:00 +19°C° 0.8 mm 10 m/s 743 mmHg 66%
    19:00 +18°C° 0.8 mm 9 m/s 744 mmHg 68%
    20:00 +18°C° 0.8 mm 8 m/s 744 mmHg 70%
    21:00 +18°C° 0.6 mm 8 m/s 744 mmHg 70%
    22:00 +18°C° 0.6 mm 8 m/s 744 mmHg 70%
    23:00 +18°C° 0.6 mm 8 m/s 744 mmHg 70%
    Arată mai mult